FENGYUN 1C DEB, 30925

Orbit data source: Space-Track

FENGYUN 1C DEB, 30925 is space debris in SSO originally from a launch on Mon, 10 May 1999 UTC launched from the Taiyaun Space Center, China (TSC). Fengyun 1C debris stems from the Chinese weather satellite Fengyun-1C, which was intentionally destroyed by a Chinese anti-satellite missile in 2007. This event dramatically increased the amount of space debris, with thousands of trackable fragments posing hazards to satellites and human spaceflight. The Fengyun 1C debris cloud has become a focal point in discussions about space sustainability and the need for international regulations to prevent the creation of new debris.

Loading next visibility...
Identifier
30925, 1999-025AZP
Orbit
SSO
Country
Flag of CNCN / PRC
Related business
Manufacturer
Unknown
Mission
Spacecraft
Bus & Motor
Unknown
Mass
Unknown
Launch date (UTC)
1999-05-10 (27 years ago)
Launch vehicle
Unknown
Launch site
Taiyaun Space Center, China (TSC)
Object type
Payload
Rocket body
Debris
Shape & HBR
Unknown shape, 0.1 m
Radar Cross Section
Small (<0.1 m²)

Expand to show TLE details & history
Last TLE update: 2 days ago

TLE from 2 days ago
0 FENGYUN 1C DEB
1 30925U 99025AZP 26168.16156968  .00004852  00000-0  13615-2 0  9996
2 30925  98.8918 313.4261 0031363  44.0045 135.8617 14.46187155997645
Epoch: 2026-06-17T03:52Z
TLE epoch observation values (Epoch: 2026-06-17T03:52:39.620Z)
Latitude
-0.23324°
Longitude
169.8015°
Altitude
757.158 km
Speed
7.467 km/s
True Right ascension
08h 53m 33s
True Declination
0° 13' 55"
Sunlit
Object was in daylight at epoch
Visualization orbit readout
Latitude
Unknown
Longitude
Unknown
Altitude
Unknown
Speed
Unknown
Apparent Right ascension
Unknown
Apparent Declination
Unknown
Sunlit
N/A
Visualization observer readout
Local Sidereal Time
08:53:30
Azimuth
Unknown
Elevation
Unknown
Doppler factor
Unknown
Orbital elements
Apogee altitude
757.571 km
Perigee altitude
712.952 km
Semi-major axis
7,113.399 km
Eccentricity
0.00314
Inclination
98.8918°
RAAN
313.4261°
Arg. of periapsis
44.0045°
True anomaly
136.11128°
Mean anomaly
135.8617°
Eccentric anomaly
135.98656°
Mean motion
3.61766 °/min
Orbital period
99.51 mins
BSTAR
0.0013615
Loading maneuver chart data...
Computing Atmospheric mass density...
Loading historical data...
Loading historical data...
Loading historical data...
Loading historical data...
Loading historical data...
Loading historical data...
Loading historical data...

Documentation

Showing up to 5 results
|